period_start,C,m1,H,J0,J1,J2,J3,J4,J5,JA,JB,JC,JD,JJ,JK,JN,#
2018-06-29 00:04:16,-0.00,0.03,0.00,25.42,29.10,32.11,13.88,48.27,1020.00,2020.99,3368.00,3077.45,3539.00,600.12,593.29,6.01,0000 0000 0000 0000 000000
2018-06-29 00:09:18,0.00,0.03,0.00,25.42,29.10,32.07,13.85,48.33,1020.03,2020.99,3368.00,3077.37,3538.99,599.94,593.10,6.06,0000 0000 0000 0000 000000
2018-06-29 00:14:19,0.00,0.03,0.00,25.40,29.10,32.10,13.87,48.38,1020.03,2020.99,3368.00,3077.15,3538.98,600.19,593.27,6.11,0000 0000 0000 0000 000000
2018-06-29 00:19:20,0.00,0.03,0.00,25.40,29.10,32.08,13.85,48.40,1020.04,2020.99,3368.00,3077.12,3538.99,599.79,593.07,6.17,0000 0000 0000 0000 000000
2018-06-29 00:24:21,0.00,0.03,0.00,25.40,29.09,32.07,13.94,48.36,1020.04,2020.99,3367.99,3077.17,3538.98,600.29,593.52,6.22,0000 0000 0000 0000 000000
2018-06-29 00:29:23,-0.00,0.03,0.00,25.40,29.07,32.07,13.96,48.47,1020.05,2020.99,3367.99,3077.26,3538.99,599.93,593.13,6.27,0000 0000 0000 0000 000000
2018-06-29 00:34:24,-0.00,0.03,0.00,25.40,29.07,32.06,13.86,48.35,1020.05,2020.99,3367.98,3077.39,3538.95,599.76,593.04,6.32,0000 0000 0000 0000 000000
2018-06-29 00:39:25,0.02,0.03,0.00,25.40,29.07,32.05,13.84,48.41,1020.06,2020.99,3367.76,3077.02,3538.36,600.06,593.42,6.37,0000 0000 0000 0000 000000
2018-06-29 00:44:26,0.00,0.03,0.00,25.39,29.07,32.05,13.81,48.45,1020.05,2020.99,3367.58,3077.00,3538.17,599.59,592.80,6.42,0000 0000 0000 0000 000000
2018-06-29 00:49:28,-0.01,0.03,0.00,25.38,29.05,32.06,13.92,48.42,1020.11,2020.99,3367.82,3077.01,3538.51,599.93,593.22,6.47,0000 0000 0000 0000 000000
2018-06-29 00:54:29,-0.00,0.03,0.00,25.37,29.05,32.01,13.88,48.42,1020.12,2020.99,3367.96,3077.02,3538.61,600.18,593.52,6.52,0000 0000 0000 0000 000000
2018-06-29 00:59:30,-0.00,0.03,0.00,25.37,29.05,32.03,13.93,48.49,1020.25,2020.99,3367.96,3077.04,3538.56,600.21,593.69,6.57,0000 0000 0000 0000 000000
2018-06-29 01:04:32,-0.00,0.03,0.00,25.37,29.04,32.03,13.92,48.45,1020.41,2020.99,3367.99,3077.05,3538.61,600.03,593.51,6.62,0000 0000 0000 0000 000000
2018-06-29 01:09:33,-0.00,0.03,0.00,25.37,29.02,32.02,13.94,48.36,1020.49,2020.99,3367.97,3077.08,3538.87,600.18,593.67,6.67,0000 0000 0000 0000 000000
2018-06-29 01:14:34,-0.00,0.03,0.00,25.36,29.02,31.99,13.86,48.38,1020.52,2020.99,3367.98,3077.23,3538.93,600.15,593.78,6.72,0000 0000 0000 0000 000000
2018-06-29 01:19:35,-0.00,0.03,0.00,25.35,29.02,32.01,13.94,48.40,1020.52,2020.99,3367.98,3077.31,3538.96,599.91,593.75,6.77,0000 0000 0000 0000 000000
2018-06-29 01:24:37,0.01,0.03,0.00,25.35,29.01,32.02,13.94,48.37,1020.49,2020.99,3367.99,3077.32,3538.95,600.13,593.68,6.82,0000 0000 0000 0000 000000
2018-06-29 01:29:38,-0.01,0.03,0.00,25.34,29.00,31.99,13.90,48.41,1020.27,2020.99,3367.99,3077.53,3538.98,599.84,593.40,6.87,0000 0000 0000 0000 000000
2018-06-29 01:34:39,-0.00,0.03,0.00,25.35,29.00,31.99,13.89,48.37,1020.31,2020.99,3367.99,3077.78,3538.99,600.01,593.45,6.92,0000 0000 0000 0000 000000
2018-06-29 01:39:40,0.00,0.03,0.00,25.34,29.00,31.98,13.94,48.35,1020.50,2021.01,3367.99,3077.91,3538.99,600.29,593.93,6.97,0000 0000 0000 0000 000000
2018-06-29 01:44:42,0.00,0.03,0.00,25.32,28.99,31.97,13.90,48.40,1020.52,2021.01,3367.99,3077.93,3538.99,600.09,593.68,7.02,0000 0000 0000 0000 000000
2018-06-29 01:49:43,0.00,0.03,0.00,25.32,28.97,31.95,13.97,48.52,1020.52,2021.01,3367.99,3077.97,3538.99,599.90,593.65,7.07,0000 0000 0000 0000 000000
2018-06-29 01:54:44,0.00,0.03,0.00,25.33,28.97,31.98,14.02,48.58,1020.52,2021.01,3367.99,3077.96,3538.99,599.99,593.69,7.12,0000 0000 0000 0000 000000
2018-06-29 01:59:45,0.01,0.03,0.00,25.32,28.97,31.94,13.92,48.41,1020.52,2021.04,3367.99,3077.97,3538.99,599.93,593.65,7.17,0000 0000 0000 0000 000000
2018-06-29 02:04:47,0.00,0.03,0.00,25.33,28.96,31.94,13.85,48.35,1020.52,2021.07,3367.99,3077.99,3539.00,599.75,593.48,7.22,0000 0000 0000 0000 000000
2018-06-29 02:09:48,-0.00,0.03,0.00,25.32,28.95,31.94,13.86,48.35,1020.52,2021.04,3368.00,3077.99,3539.00,599.98,593.54,7.27,0000 0000 0000 0000 000000
2018-06-29 02:14:49,-0.00,0.03,0.00,25.32,28.95,31.93,13.92,48.21,1020.52,2021.04,3368.01,3077.99,3539.00,600.07,593.75,7.32,0000 0000 0000 0000 000000
2018-06-29 02:19:50,0.01,0.03,0.00,25.32,28.95,31.93,13.95,48.20,1020.52,2021.08,3368.03,3077.99,3539.00,600.10,593.81,7.37,0000 0000 0000 0000 000000
2018-06-29 02:24:51,0.03,0.03,0.00,25.32,28.95,31.93,13.87,48.21,1020.52,2021.36,3368.03,3077.99,3539.09,599.85,593.62,7.42,0000 0000 0000 0000 000000
2018-06-29 02:29:52,-0.01,0.03,0.00,25.33,28.95,31.94,13.84,48.32,1020.52,2021.40,3368.01,3077.99,3539.06,599.66,593.17,7.47,0000 0000 0000 0000 000000
2018-06-29 02:34:54,0.01,0.03,0.00,25.32,28.95,31.92,13.93,48.29,1020.52,2021.50,3368.01,3077.99,3539.04,600.17,593.91,7.52,0000 0000 0000 0000 000000
2018-06-29 02:39:55,0.02,0.03,0.00,25.32,28.95,31.88,13.88,48.28,1020.52,2021.72,3368.01,3077.99,3539.07,599.92,593.58,7.57,0000 0000 0000 0000 000000
2018-06-29 02:44:56,0.00,0.03,0.00,25.32,28.94,31.88,13.92,48.32,1020.51,2021.77,3368.00,3077.99,3539.07,600.08,593.71,7.62,0000 0000 0000 0000 000000
2018-06-29 02:49:57,0.00,0.03,0.00,25.32,28.93,31.88,13.96,48.28,1020.52,2021.78,3368.01,3077.99,3539.08,600.07,593.76,7.67,0000 0000 0000 0000 000000
2018-06-29 02:54:59,0.00,0.03,0.00,25.32,28.93,31.92,13.86,48.28,1020.52,2021.91,3368.00,3077.99,3539.07,599.85,593.53,7.72,0000 0000 0000 0000 000000
2018-06-29 03:00:00,0.00,0.03,0.00,25.32,28.92,31.90,13.91,48.41,1020.52,2021.92,3368.00,3077.99,3539.04,599.84,593.52,7.77,0000 0000 0000 0000 000000
2018-06-29 03:05:01,-0.00,0.03,0.00,25.32,28.92,31.90,13.90,48.30,1020.52,2021.91,3368.00,3077.99,3539.04,599.89,593.58,7.82,0000 0000 0000 0000 000000
2018-06-29 03:10:03,0.00,0.03,0.00,25.32,28.92,31.90,13.93,48.29,1020.52,2021.96,3367.99,3077.99,3539.07,600.14,593.65,7.87,0000 0000 0000 0000 000000
2018-06-29 03:15:04,0.00,0.03,0.00,25.32,28.92,31.90,13.90,48.28,1020.53,2021.97,3367.99,3077.99,3539.07,600.04,593.72,7.92,0000 0000 0000 0000 000000
2018-06-29 03:20:05,-0.01,0.03,0.00,25.32,28.92,31.90,13.87,48.38,1020.54,2021.94,3367.99,3077.99,3539.04,599.82,593.62,7.97,0000 0000 0000 0000 000000
2018-06-29 03:25:07,0.00,0.03,0.00,25.32,28.92,31.92,13.85,48.38,1020.54,2021.95,3367.98,3077.99,3539.02,599.85,593.48,8.02,0000 0000 0000 0000 000000
2018-06-29 03:30:08,-0.00,0.03,0.00,25.30,28.92,31.85,13.91,48.36,1020.62,2021.94,3367.98,3077.99,3539.02,599.97,593.72,8.07,0000 0000 0000 0000 000000
2018-06-29 03:35:09,0.00,0.03,0.00,25.30,28.92,31.89,13.78,48.36,1020.59,2021.97,3367.97,3077.99,3539.01,599.77,593.49,8.12,0000 0000 0000 0000 000000
2018-06-29 03:40:10,-0.00,0.03,0.00,25.27,28.91,31.90,13.93,48.41,1020.54,2021.96,3367.97,3077.99,3539.01,600.23,593.92,8.17,0000 0000 0000 0000 000000
2018-06-29 03:45:11,-0.00,0.03,0.00,25.27,28.90,31.90,13.91,48.31,1020.53,2021.95,3367.90,3077.98,3539.00,600.16,593.93,8.22,0000 0000 0000 0000 000000
2018-06-29 03:50:12,0.00,0.03,0.00,25.27,28.90,31.88,13.91,48.36,1020.53,2021.92,3367.60,3077.98,3539.00,600.25,594.04,8.27,0000 0000 0000 0000 000000
2018-06-29 03:55:14,0.00,0.03,0.00,25.26,28.90,31.88,13.96,48.47,1020.53,2021.90,3367.42,3077.98,3539.00,600.22,594.09,8.32,0000 0000 0000 0000 000000
2018-06-29 04:00:15,-0.00,0.03,0.00,25.25,28.90,31.89,13.89,48.42,1020.53,2021.95,3367.67,3077.99,3539.00,600.06,593.94,8.37,0000 0000 0000 0000 000000
2018-06-29 04:05:17,0.00,0.03,0.00,25.25,28.90,31.88,13.96,48.40,1020.53,2021.98,3367.67,3077.99,3539.00,600.14,594.05,8.42,0000 0000 0000 0000 000000
2018-06-29 04:10:18,0.00,0.03,0.00,25.25,28.90,31.88,13.90,48.34,1020.56,2021.98,3367.61,3077.99,3539.00,599.92,593.82,8.47,0000 0000 0000 0000 000000
2018-06-29 04:15:19,-0.00,0.03,0.00,25.25,28.89,31.89,13.89,48.34,1020.64,2021.98,3367.51,3077.99,3539.00,599.97,593.72,8.53,0000 0000 0000 0000 000000
2018-06-29 04:20:20,-0.00,0.03,0.00,25.23,28.88,31.86,13.82,48.41,1020.75,2021.99,3367.70,3077.99,3539.00,599.70,593.69,8.58,0000 0000 0000 0000 000000
2018-06-29 04:25:22,-0.00,0.03,0.00,25.22,28.87,31.84,13.92,48.37,1020.80,2021.99,3367.85,3077.99,3539.01,599.56,593.81,8.63,0000 0000 0000 0000 000000
2018-06-29 04:30:23,0.00,0.03,0.00,25.22,28.87,31.85,13.91,48.52,1020.91,2021.99,3367.68,3077.99,3539.01,600.15,594.36,8.68,0000 0000 0000 0000 000000
2018-06-29 04:35:24,0.00,0.03,0.00,25.22,28.87,31.87,13.96,48.45,1020.99,2021.99,3367.32,3077.99,3539.00,600.18,594.38,8.73,0000 0000 0000 0000 000000
2018-06-29 04:40:26,-0.00,0.03,0.00,25.22,28.87,31.85,14.01,48.48,1021.01,2021.98,3367.34,3077.99,3539.00,600.26,594.35,8.78,0000 0000 0000 0000 000000
2018-06-29 04:45:27,0.00,0.03,0.00,25.22,28.86,31.84,13.92,48.46,1021.01,2021.99,3367.24,3077.99,3539.00,599.93,594.11,8.83,0000 0000 0000 0000 000000
2018-06-29 04:50:28,0.00,0.03,0.00,25.21,28.85,31.84,13.93,48.51,1021.01,2021.99,3367.20,3077.99,3539.00,600.07,594.38,8.88,0000 0000 0000 0000 000000
2018-06-29 04:55:29,-0.00,0.03,0.00,25.20,28.85,31.86,13.94,48.53,1021.01,2021.99,3367.24,3077.99,3539.01,599.90,594.05,8.93,0000 0000 0000 0000 000000
2018-06-29 05:00:30,0.00,0.03,0.00,25.19,28.85,31.83,13.90,48.50,1021.01,2021.99,3367.07,3077.99,3539.00,599.87,594.05,8.98,0000 0000 0000 0000 000000
2018-06-29 05:05:32,0.00,0.03,0.00,25.18,28.85,31.82,14.08,48.58,1021.00,2021.99,3367.05,3077.99,3539.00,600.57,594.78,9.03,0000 0000 0000 0000 000000
2018-06-29 05:10:33,0.00,0.03,0.00,25.17,28.85,31.85,13.92,48.46,1020.97,2021.99,3367.13,3078.00,3539.01,599.94,594.21,9.08,0000 0000 0000 0000 000000
2018-06-29 05:15:34,0.00,0.03,0.00,25.17,28.83,31.82,13.89,48.38,1021.01,2021.99,3367.13,3078.00,3539.00,599.92,594.27,9.13,0000 0000 0000 0000 000000
2018-06-29 05:20:36,-0.00,0.03,0.00,25.16,28.82,31.81,13.99,48.34,1021.01,2022.00,3367.31,3078.01,3539.02,600.32,594.50,9.18,0000 0000 0000 0000 000000
2018-06-29 05:25:37,0.00,0.03,0.00,25.15,28.82,31.81,13.97,48.34,1021.00,2022.00,3367.19,3078.02,3539.01,600.05,594.33,9.23,0000 0000 0000 0000 000000
2018-06-29 05:30:38,0.00,0.03,0.00,25.17,28.82,31.81,13.93,48.33,1020.95,2022.00,3367.13,3078.01,3539.01,600.18,594.40,9.28,0000 0000 0000 0000 000000
2018-06-29 05:35:39,0.00,0.03,0.00,25.16,28.82,31.79,13.93,48.33,1020.87,2022.00,3367.10,3078.01,3539.01,600.00,594.20,9.33,0000 0000 0000 0000 000000
2018-06-29 05:40:41,0.00,0.03,0.00,25.15,28.82,31.81,13.92,48.23,1021.01,2022.00,3367.07,3078.02,3539.02,600.28,594.57,9.38,0000 0000 0000 0000 000000
2018-06-29 05:45:42,0.00,0.03,0.00,25.15,28.81,31.81,13.91,48.17,1020.99,2022.01,3367.02,3078.00,3539.01,599.81,594.11,9.43,0000 0000 0000 0000 000000
2018-06-29 05:50:43,0.00,0.03,0.00,25.15,28.80,31.79,13.87,48.37,1020.99,2022.01,3367.02,3078.02,3539.02,599.95,594.27,9.48,0000 0000 0000 0000 000000
2018-06-29 05:55:45,0.00,0.03,0.00,25.15,28.80,31.79,13.93,48.30,1021.00,2022.00,3367.01,3078.00,3539.00,600.08,594.36,9.53,0000 0000 0000 0000 000000
2018-06-29 06:00:46,0.00,0.03,0.00,25.14,28.80,31.77,13.84,48.29,1020.98,2022.03,3367.01,3078.02,3539.00,600.08,594.32,9.58,0000 0000 0000 0000 000000
2018-06-29 06:05:47,0.00,0.03,0.00,25.14,28.80,31.80,13.89,48.32,1020.96,2022.03,3367.01,3078.02,3539.01,600.21,594.50,9.63,0000 0000 0000 0000 000000
2018-06-29 06:10:49,0.00,0.03,0.00,25.13,28.80,31.78,13.86,48.31,1021.00,2022.03,3367.01,3078.03,3539.02,600.11,594.27,9.68,0000 0000 0000 0000 000000
2018-06-29 06:15:50,0.00,0.03,0.00,25.12,28.79,31.74,13.82,48.28,1021.00,2022.08,3367.01,3078.05,3539.03,599.78,594.15,9.73,0000 0000 0000 0000 000000
2018-06-29 06:20:51,0.00,0.03,0.00,25.12,28.78,31.75,13.94,48.31,1021.01,2022.14,3367.02,3078.13,3539.04,599.91,594.35,9.78,0000 0000 0000 0000 000000
2018-06-29 06:25:52,0.00,0.03,0.00,25.13,28.77,31.74,13.83,48.36,1021.01,2022.10,3367.01,3078.07,3539.00,599.93,594.28,9.83,0000 0000 0000 0000 000000
2018-06-29 06:30:53,-0.00,0.03,0.00,25.12,28.77,31.78,13.90,48.27,1020.99,2022.07,3367.00,3078.04,3539.01,600.09,594.53,9.88,0000 0000 0000 0000 000000
2018-06-29 06:35:55,-0.00,0.03,0.00,25.12,28.77,31.77,13.87,48.34,1020.99,2022.08,3367.00,3078.02,3539.00,600.00,594.37,9.93,0000 0000 0000 0000 000000
2018-06-29 06:40:56,0.00,0.03,0.00,25.11,28.77,31.75,13.87,48.39,1020.95,2022.08,3367.00,3078.03,3539.00,599.80,594.21,9.98,0000 0000 0000 0000 000000
2018-06-29 06:45:58,0.00,0.03,0.00,25.12,28.77,31.74,13.93,48.34,1021.00,2022.10,3367.00,3078.02,3539.00,599.91,594.30,10.03,0000 0000 0000 0000 000000
2018-06-29 06:50:59,0.01,0.03,0.00,25.12,28.75,31.72,13.94,48.38,1021.01,2022.15,3367.00,3078.04,3539.00,600.06,594.58,10.08,0000 0000 0000 0000 000000
2018-06-29 06:56:00,-0.01,0.03,0.00,25.10,28.75,31.77,13.97,48.36,1021.00,2022.09,3366.99,3078.04,3539.00,600.18,594.64,10.13,0000 0000 0000 0000 000000
2018-06-29 07:01:01,0.03,0.03,0.00,25.10,28.75,31.75,13.87,48.35,1020.94,2022.40,3366.99,3078.11,3539.00,600.02,594.32,10.18,0000 0000 0000 0000 000000
2018-06-29 07:06:02,0.00,0.03,0.00,25.09,28.75,31.75,13.96,48.42,1020.78,2022.43,3366.98,3078.11,3539.00,600.18,594.41,10.23,0000 0000 0000 0000 000000
2018-06-29 07:11:03,-0.01,0.03,0.00,25.09,28.74,31.72,13.85,48.42,1020.81,2022.44,3366.96,3078.06,3539.00,599.52,593.85,10.28,0000 0000 0000 0000 000000
2018-06-29 07:16:04,0.02,0.03,0.00,25.08,28.72,31.71,13.96,48.43,1020.89,2022.50,3366.97,3078.10,3539.00,599.98,594.40,10.33,0000 0000 0000 0000 000000
2018-06-29 07:21:06,0.01,0.03,0.00,25.08,28.72,31.73,13.89,48.33,1020.76,2022.60,3366.88,3078.07,3539.00,600.03,594.29,10.38,0000 0000 0000 0000 000000
2018-06-29 07:26:07,-0.00,0.03,0.00,25.08,28.72,31.70,13.93,48.32,1020.67,2022.67,3366.82,3078.03,3539.00,600.03,594.23,10.43,0000 0000 0000 0000 000000
2018-06-29 07:31:08,0.01,0.03,0.00,25.07,28.72,31.72,13.96,48.28,1020.89,2022.50,3366.28,3078.03,3538.98,600.21,594.64,10.48,0000 0000 0000 0000 000000
2018-06-29 07:36:09,-0.00,0.03,0.00,25.07,28.70,31.69,13.88,48.49,1020.86,2022.69,3366.47,3078.04,3538.99,599.74,594.06,10.53,0000 0000 0000 0000 000000
2018-06-29 07:41:10,0.02,0.03,0.00,25.06,28.70,31.68,13.99,48.39,1020.73,2022.76,3366.27,3078.05,3538.99,600.29,594.56,10.58,0000 0000 0000 0000 000000
2018-06-29 07:46:11,0.01,0.03,0.00,25.07,28.70,31.68,13.83,48.43,1020.59,2022.90,3366.41,3078.12,3538.99,599.80,593.96,10.63,0000 0000 0000 0000 000000
2018-06-29 07:51:13,0.00,0.04,0.00,25.07,28.70,31.67,13.90,48.36,1020.63,2022.97,3366.38,3078.16,3538.99,600.01,594.25,10.68,0000 0000 0000 0000 000000
2018-06-29 07:56:14,0.01,0.04,0.00,25.05,28.69,31.69,13.89,48.46,1020.56,2022.95,3366.12,3078.09,3538.99,599.94,594.21,10.73,0000 0000 0000 0000 000000
2018-06-29 08:01:15,0.00,0.04,0.00,25.05,28.67,31.67,13.94,48.42,1020.54,2022.95,3366.04,3078.05,3538.99,600.07,594.23,10.78,0000 0000 0000 0000 000000
2018-06-29 08:06:16,0.00,0.04,0.00,25.04,28.67,31.66,13.91,48.39,1020.62,2022.95,3366.01,3078.03,3538.98,599.86,594.11,10.84,0000 0000 0000 0000 000000
2018-06-29 08:11:18,0.00,0.04,0.00,25.02,28.67,31.66,13.91,48.41,1020.91,2022.96,3366.00,3078.03,3538.98,599.90,594.44,10.89,0000 0000 0000 0000 000000
2018-06-29 08:16:19,0.00,0.04,0.00,25.01,28.65,31.68,13.93,48.38,1021.00,2022.97,3365.99,3078.01,3538.62,599.90,594.49,10.94,0000 0000 0000 0000 000000
2018-06-29 08:21:21,0.00,0.04,0.00,24.99,28.65,31.67,13.94,48.41,1021.01,2022.98,3365.98,3078.00,3538.54,600.11,594.65,10.99,0000 0000 0000 0000 000000
2018-06-29 08:26:22,-0.00,0.04,0.00,25.00,28.65,31.65,13.94,48.32,1021.01,2022.97,3365.98,3078.00,3538.59,600.32,594.98,11.04,0000 0000 0000 0000 000000
2018-06-29 08:31:23,0.01,0.04,0.00,24.97,28.63,31.66,13.94,48.43,1021.02,2022.98,3365.97,3078.00,3538.33,600.26,594.91,11.09,0000 0000 0000 0000 000000
2018-06-29 08:36:24,0.00,0.04,0.00,24.94,28.62,31.64,13.91,48.39,1021.04,2022.99,3365.94,3078.00,3538.21,600.16,594.84,11.14,0000 0000 0000 0000 000000
2018-06-29 08:41:26,-0.00,0.04,0.00,24.93,28.61,31.63,13.90,48.44,1021.05,2022.99,3365.96,3078.00,3538.33,599.92,594.58,11.19,0000 0000 0000 0000 000000
2018-06-29 08:46:27,-0.01,0.04,0.00,24.92,28.60,31.65,13.92,48.43,1021.05,2022.99,3365.96,3078.00,3538.65,600.17,595.05,11.24,0000 0000 0000 0000 000000
2018-06-29 08:51:28,0.00,0.04,0.00,24.91,28.60,31.63,13.99,48.46,1021.04,2022.99,3365.98,3078.01,3538.84,600.26,595.04,11.29,0000 0000 0000 0000 000000
2018-06-29 08:56:30,0.00,0.04,0.00,24.88,28.57,31.62,13.83,48.38,1021.06,2022.99,3365.97,3078.00,3538.72,599.48,594.42,11.34,0000 0000 0000 0000 000000
2018-06-29 09:01:31,-0.00,0.04,0.00,24.87,28.57,31.60,13.92,48.50,1021.03,2022.99,3365.98,3078.02,3538.89,599.87,594.79,11.39,0000 0000 0000 0000 000000
2018-06-29 09:06:32,0.00,0.04,0.00,24.86,28.55,31.59,13.99,48.48,1021.02,2022.99,3365.99,3078.03,3538.96,600.32,595.14,11.44,0000 0000 0000 0000 000000
2018-06-29 09:11:33,0.00,0.04,0.00,24.82,28.55,31.59,13.97,48.36,1021.02,2023.00,3365.98,3078.09,3538.98,600.02,595.04,11.49,0000 0000 0000 0000 000000
2018-06-29 09:16:34,0.00,0.04,0.00,24.82,28.52,31.58,13.96,48.44,1021.03,2023.00,3365.99,3078.13,3538.98,600.21,595.19,11.54,0000 0000 0000 0000 000000
2018-06-29 09:21:35,0.00,0.04,0.00,24.81,28.52,31.56,13.90,48.42,1021.04,2023.00,3365.99,3078.19,3538.99,599.89,594.83,11.59,0000 0000 0000 0000 000000
2018-06-29 09:26:37,-0.01,0.04,0.00,24.78,28.50,31.56,13.89,48.42,1021.04,2023.02,3365.99,3078.64,3538.99,599.91,594.95,11.64,0000 0000 0000 0000 000000
2018-06-29 09:31:38,0.00,0.03,0.00,24.76,28.49,31.53,14.01,48.42,1021.03,2023.03,3366.00,3078.82,3538.99,600.33,595.41,11.69,0000 0000 0000 0000 000000
2018-06-29 09:36:39,0.00,0.03,0.00,24.75,28.47,31.52,13.94,48.42,1021.03,2023.07,3366.00,3078.96,3539.01,599.94,594.99,11.74,0000 0000 0000 0000 000000
2018-06-29 09:41:41,0.01,0.03,0.00,24.72,28.46,31.50,13.98,48.42,1021.02,2023.14,3366.02,3078.98,3539.02,600.19,595.26,11.79,0000 0000 0000 0000 000000
2018-06-29 09:46:42,0.02,0.04,0.00,24.70,28.45,31.50,13.96,48.46,1021.01,2023.41,3366.08,3078.99,3539.17,600.08,595.23,11.84,0000 0000 0000 0000 000000
2018-06-29 09:51:43,0.02,0.04,0.00,24.70,28.43,31.47,13.91,48.41,1021.01,2023.77,3366.38,3078.99,3539.69,600.01,595.23,11.89,0000 0000 0000 0000 000000
2018-06-29 09:56:45,0.00,0.04,0.00,24.67,28.41,31.45,13.99,48.54,1021.01,2023.87,3366.69,3079.00,3539.94,600.06,595.45,11.94,0000 0000 0000 0000 000000
2018-06-29 10:01:46,0.00,0.04,0.00,24.65,28.40,31.43,13.96,48.51,1021.01,2023.95,3366.89,3079.03,3539.98,600.07,595.33,11.99,0000 0000 0000 0000 000000
2018-06-29 10:06:48,0.00,0.04,0.00,24.64,28.38,31.42,13.93,48.54,1020.99,2023.99,3366.97,3079.10,3539.99,600.09,595.34,12.04,0000 0000 0000 0000 000000
2018-06-29 10:11:49,0.00,0.04,0.00,24.62,28.37,31.41,13.89,48.57,1020.75,2023.98,3366.92,3079.03,3539.97,600.16,595.46,12.09,0000 0000 0000 0000 000000
2018-06-29 10:16:50,0.00,0.04,0.00,24.63,28.35,31.38,13.93,48.55,1020.83,2023.99,3366.93,3079.05,3539.99,599.82,595.05,12.14,0000 0000 0000 0000 000000
2018-06-29 10:21:51,0.00,0.04,0.00,24.63,28.34,31.34,13.87,48.52,1021.00,2023.99,3366.77,3079.03,3539.99,599.73,595.06,12.19,0000 0000 0000 0000 000000
2018-06-29 10:26:53,0.00,0.04,0.00,24.65,28.32,31.28,13.95,48.52,1021.01,2023.99,3366.86,3079.05,3539.99,599.81,595.18,12.24,0000 0000 0000 0000 000000
2018-06-29 10:31:54,-0.01,0.04,0.00,24.66,28.32,31.24,13.88,48.51,1021.01,2024.00,3366.98,3079.30,3539.99,599.87,595.19,12.29,0000 0000 0000 0000 000000
2018-06-29 10:36:55,-0.00,0.04,0.00,24.66,28.30,31.25,13.96,48.53,1021.01,2024.00,3366.97,3079.55,3539.99,599.96,595.19,12.34,0000 0000 0000 0000 000000
2018-06-29 10:41:56,0.01,0.04,0.00,24.64,28.30,31.26,13.93,48.43,1021.02,2024.01,3366.97,3079.63,3540.00,600.15,595.45,12.39,0000 0000 0000 0000 000000
2018-06-29 10:46:57,-0.00,0.04,0.00,24.61,28.28,31.24,13.95,48.54,1021.02,2024.01,3366.98,3079.65,3540.00,600.07,595.37,12.44,0000 0000 0000 0000 000000
2018-06-29 10:51:59,-0.00,0.04,0.00,24.59,28.27,31.31,13.90,48.46,1021.02,2024.03,3366.99,3079.88,3540.02,599.84,595.33,12.49,0000 0000 0000 0000 000000
2018-06-29 10:57:00,0.00,0.04,0.00,24.57,28.26,31.29,14.02,48.57,1021.01,2024.02,3366.99,3079.92,3540.02,600.38,595.78,12.54,0000 0000 0000 0000 000000
2018-06-29 11:02:01,0.00,0.04,0.00,24.53,28.25,31.31,13.99,48.50,1021.01,2024.04,3366.98,3079.93,3540.02,600.03,595.58,12.59,0000 0000 0000 0000 000000
2018-06-29 11:07:03,0.00,0.04,0.00,24.50,28.23,31.31,13.98,48.65,1021.01,2024.08,3366.99,3079.97,3540.11,600.23,595.83,12.64,0000 0000 0000 0000 000000
2018-06-29 11:12:04,0.01,0.04,0.00,24.47,28.22,31.29,13.98,48.51,1021.02,2024.26,3366.99,3079.99,3540.50,599.92,595.58,12.69,0000 0000 0000 0000 000000
2018-06-29 11:17:05,0.03,0.04,0.00,24.45,28.20,31.27,13.94,48.49,1021.02,2024.70,3367.00,3079.99,3540.94,599.78,595.48,12.74,0000 0000 0000 0000 000000
2018-06-29 11:22:07,0.01,0.04,0.00,24.42,28.19,31.29,14.01,48.52,1021.02,2024.78,3367.01,3079.99,3540.95,600.33,596.09,12.79,0000 0000 0000 0000 000000
2018-06-29 11:27:08,0.00,0.04,0.00,24.38,28.17,31.25,13.99,48.48,1021.01,2024.90,3367.04,3080.01,3540.98,600.35,596.26,12.84,0000 0000 0000 0000 000000
2018-06-29 11:32:09,0.00,0.04,0.00,24.37,28.16,31.25,14.00,48.44,1021.01,2024.98,3367.16,3080.05,3540.99,599.90,595.73,12.89,0000 0000 0000 0000 000000
2018-06-29 11:37:10,0.00,0.04,0.00,24.34,28.15,31.21,14.02,48.63,1021.01,2024.98,3367.25,3080.11,3540.99,600.12,595.95,12.94,0000 0000 0000 0000 000000
2018-06-29 11:42:11,-0.01,0.04,0.00,24.30,28.12,31.19,14.05,48.57,1021.02,2024.99,3367.57,3080.43,3541.03,600.13,596.27,12.99,0000 0000 0000 0000 000000
2018-06-29 11:47:13,-0.02,0.04,0.00,24.28,28.11,31.16,13.93,48.48,1021.01,2024.99,3367.90,3080.85,3541.29,600.03,596.08,13.04,0000 0000 0000 0000 000000
2018-06-29 11:52:14,-0.01,0.04,0.00,24.25,28.09,31.17,14.02,48.59,1021.01,2024.99,3367.98,3080.98,3541.87,599.98,595.96,13.10,0000 0000 0000 0000 000000
2018-06-29 11:57:15,0.00,0.04,0.00,24.23,28.07,31.14,14.02,48.56,1021.01,2025.04,3367.99,3080.99,3541.99,600.38,596.57,13.15,0000 0000 0000 0000 000000
2018-06-29 12:02:16,0.00,0.04,0.00,24.21,28.05,31.10,14.02,48.49,1021.01,2025.09,3368.00,3081.01,3541.99,600.26,596.44,13.20,0000 0000 0000 0000 000000
2018-06-29 12:07:17,0.02,0.04,0.00,24.18,28.02,31.07,13.94,48.58,1021.01,2025.21,3368.00,3081.02,3542.00,600.11,596.39,13.25,0000 0000 0000 0000 000000
2018-06-29 12:12:18,-0.00,0.04,0.00,24.15,28.00,31.09,14.04,48.59,1021.00,2025.27,3368.01,3081.03,3542.00,600.23,596.59,13.30,0000 0000 0000 0000 000000
2018-06-29 12:17:19,0.05,0.04,0.00,24.13,27.98,31.07,14.00,48.63,1021.00,2025.73,3368.04,3081.09,3542.03,600.02,596.31,13.35,0000 0000 0000 0000 000000
2018-06-29 12:22:21,-0.02,0.04,0.00,24.11,27.96,31.02,14.01,48.60,1020.96,2025.94,3368.32,3081.65,3542.45,600.02,596.52,13.40,0000 0000 0000 0000 000000
2018-06-29 12:27:22,-0.01,0.04,0.00,24.08,27.94,31.03,14.00,48.57,1020.93,2025.98,3368.92,3081.96,3542.96,600.00,596.41,13.45,0000 0000 0000 0000 000000
2018-06-29 12:32:23,-0.00,0.04,0.00,24.05,27.92,31.01,13.95,48.52,1020.86,2025.99,3368.97,3081.99,3542.99,599.98,596.40,13.50,0000 0000 0000 0000 000000
2018-06-29 12:37:24,0.00,0.04,0.00,24.04,27.90,30.99,14.00,48.57,1020.92,2025.99,3368.99,3081.99,3542.99,600.08,596.55,13.55,0000 0000 0000 0000 000000
2018-06-29 12:42:25,0.00,0.04,0.00,24.01,27.88,30.94,14.01,48.56,1020.98,2025.99,3368.99,3082.00,3543.04,600.14,596.71,13.60,0000 0000 0000 0000 000000
2018-06-29 12:47:26,0.00,0.04,0.00,23.99,27.86,30.92,13.98,48.53,1020.95,2026.03,3368.99,3082.03,3543.13,600.19,596.81,13.65,0000 0000 0000 0000 000000
2018-06-29 12:52:27,-0.00,0.04,0.00,23.97,27.84,30.89,13.97,48.59,1020.97,2026.07,3368.99,3082.09,3543.55,600.27,596.88,13.70,0000 0000 0000 0000 000000
2018-06-29 12:57:28,0.02,0.04,0.00,23.94,27.81,30.88,14.04,48.62,1020.95,2026.39,3369.02,3082.42,3543.92,600.25,596.96,13.75,0000 0000 0000 0000 000000